Dewpoint
47 48 48 48 48 49 49 49 49 50 50 50 51 51 52 51 51 34 36 45 41 52 51 25 17 14 16 12 11 16 3 -5 -3 -2 -1 11 14 21 23 30 42 52 55 59 64
47 48 48 48 48 49 49 49 49 50 50 50 50 51 52 51 35 30 49 54 52 53 24 20 12 10 8 10 8 3 -1 -4 -1 1 1 14 9 14 18 23 37 41 57 61 64
47 48 48 48 48 48 49 49 49 50 50 50 50 51 52 47 22 17 52 57 57 44 19 26 23 7 6 9 10 4 -1 -5 1 8 12 9 9 13 10 18 23 26 52 62 63
48 48 48 48 48 49 49 49 50 50 50 50 50 51 51 36 5 30 49 51 52 31 16 14 18 12 2 5 8 8 3 6 1 8 8 6 7 4 8 11 25 22 47 60 62
47 47 48 48 48 48 48 49 49 50 50 50 50 50 40 22 23 16 45 42 26 24 20 14 11 11 7 5 8 7 1 8 8 8 7 8 6 3 8 9 15 18 38 53 58
47 48 48 48 47 48 48 49 49 49 49 50 50 50 25 17 19 11 10 18 23 25 22 18 17 16 12 10 9 11 8 7 9 7 9 8 4 8 12 13 12 12 19 40 50
47 48 48 48 48 49 50 50 51 51 49 49 50 34 20 13 9 10 12 15 21 23 23 23 16 16 13 9 11 12 9 6 9 9 7 8 3 3 7 9 9 12 15 29 45
47 48 48 49 49 49 49 51 51 50 49 49 50 39 24 21 12 7 11 14 16 17 25 27 26 19 20 18 15 12 10 1 -1 6 7 7 -9 8 8 8 9 11 14 18 34
48 48 49 50 50 49 48 52 52 51 50 49 37 26 9 26 7 5 7 11 17 19 25 23 23 20 19 15 8 10 -1 1 1 6 2 5 -6 9 12 11 11 12 14 18 23
48 48 49 50 50 48 50 50 49 47 40 34 8 15 5 1 5 1 1 8 11 15 21 21 21 20 16 10 4 1 2 3 -1 5 7 3 0 7 9 10 12 10 11 17 20
48 48 50 49 47 47 46 35 26 17 17 10 7 5 3 2 7 5 -1 3 3 8 9 13 14 15 16 16 15 12 12 7 2 7 13 6 4 4 8 10 11 10 9 8 14
48 49 48 47 44 40 36 29 29 20 13 4 3 5 8 4 -2 3 6 -0 -0 -6 -5 -1 7 10 14 15 16 18 17 15 13 12 17 11 10 10 10 11 13 13 13 12 11
49 48 48 45 43 41 35 34 35 31 15 7 2 4 9 7 1 3 8 7 3 -1 -5 -8 -8 -2 4 7 10 14 17 17 16 17 19 17 15 16 16 15 14 14 14 14 13
49 49 45 42 36 37 33 35 39 39 11 4 3 3 10 8 5 5 8 9 9 4 4 0 -6 -4 -5 1 8 9 11 14 17 18 15 16 6 4 5 9 12 13 16 16 15
49 47 43 43 34 32 34 38 42 41 23 3 5 7 12 8 6 4 9 13 8 7 8 1 -2 0 3 -2 -2 7 12 11 13 16 17 14 13 11 10 11 12 14 14 15 15
46 43 39 34 35 33 37 42 41 25 13 6 8 11 10 9 5 10 12 13 11 9 8 7 7 7 9 8 6 4 12 14 14 13 13 12 11 8 8 14 14 14 19 26 27
43 42 33 31 30 36 44 37 19 24 8 8 11 13 11 14 6 8 7 7 11 14 8 8 8 11 14 16 13 8 10 13 14 19 14 10 9 12 15 16 23 30 33 35 37
41 40 35 33 34 42 34 16 25 7 10 12 16 14 11 17 12 14 8 6 19 14 10 12 12 13 18 20 17 9 3 11 10 6 8 8 10 10 17 30 32 35 36 37 38
40 36 33 38 37 35 22 30 18 12 17 18 16 14 13 16 18 15 14 15 20 15 19 16 13 18 21 23 23 18 13 5 17 16 10 4 12 28 32 32 33 33 34 34 36
28 28 30 40 39 33 21 17 18 23 23 21 16 18 16 18 17 17 17 25 19 16 26 24 19 17 25 30 31 22 26 10 19 14 15 15 12 27 29 29 31 32 33 34 34
33 20 34 39 40 26 31 20 21 23 26 23 21 20 20 20 21 18 19 24 23 26 28 31 25 16 23 30 25 26 23 19 14 21 17 10 24 31 28 28 29 32 33 34 33
32 26 33 39 24 22 23 22 24 23 25 25 25 25 24 23 20 22 22 23 27 29 28 33 26 21 27 24 25 26 23 17 13 22 26 21 24 30 27 28 29 30 30 31 32
20 21 33 36 32 28 24 23 24 22 23 24 23 27 27 25 22 22 24 27 28 29 29 30 15 14 17 16 24 26 27 22 12 17 23 23 24 23 23 26 27 28 28 29 31
24 35 30 26 25 22 20 21 21 25 23 25 25 27 27 22 27 25 24 25 26 28 32 31 24 20 18 22 24 21 22 21 22 18 19 19 20 19 23 26 27 27 27 29 30
26 29 26 33 25 24 23 22 19 19 23 23 22 24 24 22 21 23 25 25 26 28 33 33 26 25 26 23 20 22 20 20 19 21 18 22 20 21 26 29 31 27 26 27 28
36 28 25 25 25 23 23 21 20 21 23 23 22 24 26 24 26 26 26 27 29 27 29 33 29 30 25 26 14 17 21 16 17 21 21 19 18 25 30 33 27 27 27 28 28
29 30 29 25 24 21 23 23 22 25 23 23 25 25 24 26 28 28 28 31 30 28 28 31 30 27 23 22 15 12 22 22 20 24 25 19 25 28 26 29 30 29 28 29 29
Lifted_Index
16 15 15 15 15 15 14 14 14 14 14 13 13 13 12 13 13 12 11 10 11 11 11 12 12 11 11 10 10 9 7 5 5 5 5 6 6 7 6 4 2 -1 -4 -5 -5
16 16 15 15 15 14 14 14 14 14 14 13 13 13 12 13 13 12 10 9 10 11 12 12 11 11 10 10 9 8 7 6 6 6 6 6 7 7 7 5 3 1 -3 -5 -5
16 16 15 15 15 14 14 14 14 14 14 13 13 13 12 12 11 11 10 9 9 11 12 12 11 10 9 9 9 8 7 6 7 7 7 7 7 7 7 7 6 3 -1 -4 -5
16 16 15 15 15 15 14 14 14 14 13 13 13 12 12 11 11 12 12 10 10 12 13 12 11 10 8 8 9 8 7 8 8 8 7 7 7 7 8 8 7 5 2 -2 -4
16 15 15 15 15 15 15 14 14 14 13 13 13 12 12 11 12 13 13 12 12 12 13 12 11 10 9 9 9 9 9 8 8 8 8 7 7 7 8 8 8 7 4 0 -2
15 15 15 15 15 15 14 14 13 13 13 13 13 12 12 11 14 15 14 13 13 12 12 12 12 11 10 9 9 10 9 8 8 8 7 7 7 7 7 8 9 8 7 4 1
15 15 15 15 15 14 14 13 13 13 13 13 12 12 12 13 15 16 15 14 13 12 12 12 12 12 11 10 10 10 8 8 7 7 7 6 6 6 7 7 8 8 8 6 4
15 15 15 15 14 14 13 13 12 12 12 12 12 12 12 14 16 16 15 14 13 12 12 11 11 11 11 10 10 9 7 7 7 8 7 6 5 6 7 7 7 8 9 8 7
14 14 14 14 14 14 13 12 12 12 12 12 12 12 13 15 16 16 15 14 13 12 11 11 10 10 10 8 7 7 6 6 7 8 7 5 5 6 7 6 6 8 9 9 9
14 14 14 14 14 14 13 13 13 13 13 13 13 13 14 15 16 16 16 14 13 12 11 10 9 9 8 7 6 6 6 6 7 8 7 5 5 7 7 7 6 8 9 9 9
14 14 14 14 15 15 14 13 13 13 13 14 14 14 15 16 16 16 16 15 13 12 11 10 9 8 8 7 7 6 7 7 7 8 7 6 6 7 8 7 7 8 9 9 9
14 14 14 15 16 15 14 14 14 13 13 14 15 15 15 15 15 15 15 14 13 12 12 11 9 9 9 8 8 8 7 7 7 8 8 7 6 7 7 7 7 8 8 9 9
14 14 15 15 16 15 14 14 14 12 12 13 14 14 14 14 13 13 13 13 12 11 11 10 10 10 10 9 9 8 7 7 6 7 7 6 5 5 7 7 7 7 8 8 9
14 15 16 16 15 14 14 14 13 10 9 10 13 13 13 12 11 11 11 10 10 10 9 9 9 9 9 9 8 7 7 6 6 6 6 5 4 5 6 7 7 7 7 8 8
15 16 16 16 15 14 13 13 11 8 6 8 11 11 10 9 9 8 8 8 7 7 6 6 6 6 6 7 7 7 6 6 6 5 5 5 5 5 6 6 7 7 7 7 7
17 17 17 16 15 14 13 11 9 7 6 7 8 8 7 7 7 6 6 5 5 4 4 4 3 4 4 4 5 5 5 4 4 3 4 5 5 5 6 6 6 6 6 6 6
17 17 17 16 15 14 12 10 8 6 7 7 6 6 6 6 5 5 5 4 4 4 3 3 3 3 3 3 3 3 3 2 1 1 2 3 4 4 5 5 5 5 5 4 4
17 17 16 16 15 14 12 9 7 7 7 6 5 5 5 5 5 4 4 4 5 5 4 3 2 3 3 2 2 2 2 1 -0 -0 0 1 2 3 3 4 5 4 4 4 4
16 16 16 16 16 14 11 8 7 7 6 5 5 4 4 5 4 4 4 5 5 5 5 3 2 3 3 2 2 1 1 1 0 -0 -0 -0 0 1 2 3 4 5 5 5 5
15 15 15 15 15 13 10 8 7 7 6 5 4 4 4 4 4 4 4 5 5 5 5 4 3 2 2 2 1 1 1 1 1 0 -0 -0 -0 0 1 2 4 5 6 6 6
14 13 14 14 13 11 9 8 8 7 7 6 5 4 4 4 4 4 4 5 5 5 5 4 3 2 2 1 1 1 0 1 1 0 -0 -0 0 1 1 2 3 4 5 6 6
13 12 13 13 11 10 9 8 8 7 6 6 5 5 5 5 5 5 5 5 5 5 5 4 3 2 2 2 1 1 0 1 1 1 0 -0 1 2 3 3 3 4 4 5 5
12 12 13 12 10 9 9 8 8 7 6 6 6 6 5 5 5 5 5 5 5 5 5 4 4 3 2 3 2 1 1 1 2 1 1 0 1 3 3 3 3 3 4 4 4
11 11 12 12 11 10 9 8 7 6 6 6 6 6 6 5 5 5 5 5 5 5 5 4 4 3 3 4 3 2 2 2 2 2 1 1 1 2 3 3 3 3 4 4 4
11 11 11 11 11 10 9 8 6 5 6 6 6 6 6 5 5 5 5 5 5 4 4 4 4 4 4 4 4 4 3 3 3 2 2 2 2 3 4 4 4 4 4 3 3
11 11 12 11 11 10 9 8 6 5 5 6 6 6 6 6 6 5 5 5 5 4 4 3 3 3 4 4 5 5 5 5 5 4 4 3 4 5 6 6 7 6 5 4 3
13 12 12 12 11 10 9 8 6 5 6 6 6 6 6 6 6 6 6 6 6 5 4 3 3 3 3 4 4 4 5 6 6 7 5 4 5 7 7 8 8 7 6 5 4